Private Wetterstation Wechselburg
Wetterdaten: Donnerstag, 15.07.2010
Datum Zeit Temp. +2m Bodentemp. Temp.+5cm Temp. Wind Windchill X Diff Temp. Feuchte +2m Feuchte +5cm Sonnenschein Luftdruck Regen Wind Richtung Richtung Sonnenschein UV Taupunkt Windchill Windben
15.07.2010 00:00 24,7 C 24,6 C 22,6 C 23,5 C 21,0 C 0,0 C 68 % 72 % 0 % 1005,4 hPa 0,0 l/m 0,0 km/h (0 Bft) SW 225 0 min 0,4 UV-I 18,4 C 21,0 C 0,0 km/h (0 Bft)
15.07.2010 00:07 24,7 C 24,6 C 22,6 C 23,4 C 20,9 C 0,0 C 68 % 72 % 0 % 1005,4 hPa 0,0 l/m 0,0 km/h (0 Bft) N 0 0 min 0,4 UV-I 18,4 C 20,9 C 0,0 km/h (0 Bft)
15.07.2010 00:10 24,6 C 24,6 C 22,6 C 23,3 C 20,8 C 0,0 C 69 % 72 % 0 % 1005,4 hPa 0,0 l/m 0,0 km/h (0 Bft) SW 225 0 min 0,4 UV-I 18,5 C 20,8 C 0,0 km/h (0 Bft)
15.07.2010 00:15 24,6 C 24,6 C 22,6 C 23,3 C 20,7 C 0,0 C 69 % 72 % 0 % 1005,4 hPa 0,0 l/m 0,0 km/h (0 Bft) SW 225 0 min 0,4 UV-I 18,5 C 20,7 C 0,0 km/h (0 Bft)
15.07.2010 00:20 24,4 C 24,6 C 22,6 C 23,1 C 20,6 C 0,0 C 70 % 72 % 0 % 1005,6 hPa 0,0 l/m 0,2 km/h (0 Bft) SW 225 0 min 0,5 UV-I 18,6 C 20,6 C 0,0 km/h (0 Bft)
15.07.2010 00:25 24,1 C 24,6 C 22,6 C 22,9 C 20,5 C 0,0 C 70 % 72 % 0 % 1005,6 hPa 0,0 l/m 0,5 km/h (0 Bft) O-NO 67 0 min 0,5 UV-I 18,3 C 20,5 C 2,3 km/h (1 Bft)
15.07.2010 00:30 24,0 C 24,5 C 22,6 C 22,9 C 20,7 C 0,0 C 71 % 72 % 0 % 1005,6 hPa 0,0 l/m 0,8 km/h (0 Bft) SW 225 0 min 0,5 UV-I 18,4 C 20,7 C 2,7 km/h (1 Bft)
15.07.2010 00:35 24,0 C 24,5 C 22,6 C 22,9 C 20,6 C 0,0 C 71 % 72 % 0 % 1005,6 hPa 0,0 l/m 1,6 km/h (1 Bft) SW 225 0 min 0,6 UV-I 18,4 C 20,6 C 2,7 km/h (1 Bft)
15.07.2010 00:40 24,0 C 24,4 C 22,0 C 23,0 C 21,0 C 0,0 C 66 % 74 % 0 % 1006,9 hPa 0,0 l/m 7,6 km/h (2 Bft) SW 225 0 min 0,8 UV-I 17,2 C 21,0 C 27,8 km/h (4 Bft)
15.07.2010 00:45 24,3 C 24,5 C 23,2 C 23,6 C 22,2 C 0,0 C 64 % 68 % 0 % 1006,9 hPa 0,0 l/m 10,5 km/h (2 Bft) W-SW 247 0 min 2,5 UV-I 17,0 C 22,2 C 13,4 km/h (3 Bft)
15.07.2010 00:50 24,8 C 24,5 C 23,9 C 24,5 C 23,9 C 0,0 C 62 % 65 % 0 % 1006,9 hPa 0,0 l/m 10,6 km/h (2 Bft) SW 225 0 min 5,1 UV-I 17,0 C 23,9 C 19,3 km/h (3 Bft)
15.07.2010 00:55 24,9 C 24,4 C 24,1 C 24,7 C 24,4 C 0,0 C 61 % 64 % 0 % 1006,9 hPa 0,0 l/m 8,9 km/h (2 Bft) S 180 0 min 3,4 UV-I 16,8 C 24,4 C 11,3 km/h (2 Bft)
15.07.2010 01:00 25,0 C 24,4 C 24,4 C 24,9 C 24,7 C 0,0 C 61 % 63 % 0 % 1008,1 hPa 0,0 l/m 8,4 km/h (2 Bft) W-SW 247 0 min 1,5 UV-I 16,9 C 24,7 C 10,1 km/h (2 Bft)
15.07.2010 01:06 25,1 C 24,4 C 24,4 C 25,0 C 24,8 C 0,0 C 61 % 62 % 0 % 1008,1 hPa 0,0 l/m 8,0 km/h (2 Bft) N 0 0 min 0,7 UV-I 17,0 C 24,8 C 10,1 km/h (2 Bft)
15.07.2010 01:10 25,1 C 24,4 C 24,4 C 25,0 C 24,8 C 0,0 C 60 % 62 % 0 % 1008,1 hPa 0,0 l/m 8,2 km/h (2 Bft) S 180 0 min 0,4 UV-I 16,8 C 24,8 C 10,5 km/h (2 Bft)
15.07.2010 01:15 25,1 C 24,3 C 24,5 C 25,0 C 24,7 C 0,0 C 60 % 62 % 0 % 1008,1 hPa 0,0 l/m 8,7 km/h (2 Bft) SW 225 0 min 0,3 UV-I 16,8 C 24,7 C 10,5 km/h (2 Bft)
15.07.2010 01:20 25,1 C 24,3 C 24,2 C 24,9 C 24,4 C 0,0 C 60 % 63 % 0 % 1007,9 hPa 0,0 l/m 7,4 km/h (2 Bft) SW 225 0 min 0,2 UV-I 16,8 C 24,4 C 4,3 km/h (1 Bft)
15.07.2010 01:25 24,9 C 24,3 C 24,1 C 24,6 C 24,1 C 0,0 C 61 % 64 % 0 % 1007,9 hPa 0,0 l/m 6,0 km/h (2 Bft) W-SW 247 0 min 0,2 UV-I 16,8 C 24,1 C 7,4 km/h (2 Bft)
15.07.2010 01:30 24,8 C 24,3 C 23,9 C 24,5 C 23,8 C 0,0 C 61 % 65 % 0 % 1007,9 hPa 0,0 l/m 5,0 km/h (1 Bft) W-SW 247 0 min 0,1 UV-I 16,8 C 23,8 C 3,2 km/h (1 Bft)
15.07.2010 01:35 24,9 C 24,3 C 23,8 C 24,5 C 23,6 C 0,0 C 62 % 65 % 0 % 1007,9 hPa 0,0 l/m 3,9 km/h (1 Bft) S 180 0 min 0,1 UV-I 17,1 C 23,6 C 6,1 km/h (2 Bft)
15.07.2010 01:40 24,7 C 24,4 C 23,5 C 24,2 C 23,3 C 0,0 C 62 % 67 % 0 % 1008,2 hPa 0,0 l/m 3,1 km/h (1 Bft) S-SW 202 0 min 0,1 UV-I 16,9 C 23,3 C 6,4 km/h (2 Bft)
15.07.2010 01:45 24,7 C 24,4 C 23,4 C 24,2 C 23,1 C 0,0 C 63 % 69 % 0 % 1008,2 hPa 0,0 l/m 2,6 km/h (1 Bft) O-NO 67 0 min 0,0 UV-I 17,2 C 23,1 C 0,0 km/h (0 Bft)
15.07.2010 01:50 24,5 C 24,3 C 23,1 C 23,8 C 22,5 C 0,0 C 64 % 70 % 0 % 1008,2 hPa 0,0 l/m 1,3 km/h (1 Bft) O-NO 67 0 min 0,0 UV-I 17,2 C 22,5 C 2,6 km/h (1 Bft)
15.07.2010 01:55 24,4 C 24,3 C 23,1 C 23,7 C 22,3 C 0,0 C 65 % 71 % 0 % 1008,2 hPa 0,0 l/m 0,8 km/h (0 Bft) O-NO 67 0 min 0,0 UV-I 17,4 C 22,3 C 0,0 km/h (0 Bft)
15.07.2010 02:00 24,4 C 24,3 C 22,9 C 23,7 C 22,2 C 0,0 C 66 % 71 % 0 % 1007,8 hPa 0,0 l/m 0,5 km/h (0 Bft) S-SO 157 0 min 0,0 UV-I 17,6 C 22,2 C 0,0 km/h (0 Bft)
15.07.2010 02:06 24,3 C 24,3 C 22,9 C 23,6 C 22,1 C 0,0 C 66 % 72 % 0 % 1007,8 hPa 0,0 l/m 0,3 km/h (0 Bft) N 0 0 min 0,1 UV-I 17,5 C 22,1 C 0,0 km/h (0 Bft)
15.07.2010 02:10 24,3 C 24,3 C 22,8 C 23,5 C 22,0 C 0,0 C 67 % 72 % 0 % 1007,8 hPa 0,0 l/m 1,3 km/h (1 Bft) S 180 0 min 0,1 UV-I 17,8 C 22,0 C 2,1 km/h (1 Bft)
15.07.2010 02:15 24,2 C 24,3 C 22,7 C 23,5 C 22,0 C 0,0 C 67 % 73 % 0 % 1007,8 hPa 0,0 l/m 1,1 km/h (1 Bft) S-SO 157 0 min 0,2 UV-I 17,7 C 22,0 C 0,0 km/h (0 Bft)
15.07.2010 02:20 24,2 C 24,2 C 22,6 C 23,4 C 21,8 C 0,0 C 68 % 74 % 0 % 1008,4 hPa 0,0 l/m 0,8 km/h (0 Bft) W-SW 247 0 min 0,2 UV-I 17,9 C 21,8 C 3,9 km/h (1 Bft)
15.07.2010 02:25 24,1 C 24,2 C 22,5 C 23,3 C 21,7 C 0,0 C 68 % 74 % 0 % 1008,4 hPa 0,0 l/m 1,6 km/h (1 Bft) W-SW 247 0 min 0,3 UV-I 17,8 C 21,7 C 2,3 km/h (1 Bft)
15.07.2010 02:30 24,1 C 24,2 C 22,4 C 23,2 C 21,5 C 0,0 C 69 % 76 % 0 % 1008,4 hPa 0,0 l/m 1,9 km/h (1 Bft) SW 225 0 min 0,3 UV-I 18,0 C 21,5 C 0,0 km/h (0 Bft)
15.07.2010 02:35 24,0 C 24,2 C 22,3 C 23,2 C 21,5 C 0,0 C 68 % 75 % 0 % 1008,4 hPa 0,0 l/m 1,0 km/h (0 Bft) SW 225 0 min 0,2 UV-I 17,7 C 21,5 C 0,0 km/h (0 Bft)
15.07.2010 02:40 23,9 C 24,2 C 22,2 C 23,0 C 21,3 C 0,0 C 69 % 76 % 0 % 1008,8 hPa 0,0 l/m 0,2 km/h (0 Bft) S 180 0 min 0,2 UV-I 17,9 C 21,3 C 0,0 km/h (0 Bft)
15.07.2010 02:45 23,8 C 24,2 C 22,1 C 23,0 C 21,3 C 0,0 C 70 % 76 % 0 % 1008,8 hPa 0,0 l/m 0,3 km/h (0 Bft) S-SW 202 0 min 0,1 UV-I 18,0 C 21,3 C 0,0 km/h (0 Bft)
15.07.2010 02:50 23,7 C 24,3 C 22,0 C 22,8 C 21,0 C 0,0 C 71 % 77 % 0 % 1008,8 hPa 0,0 l/m 0,5 km/h (0 Bft) W-SW 247 0 min 0,1 UV-I 18,1 C 21,0 C 0,0 km/h (0 Bft)
15.07.2010 02:55 23,6 C 24,4 C 21,9 C 22,6 C 20,6 C 0,0 C 71 % 79 % 0 % 1008,8 hPa 0,0 l/m 0,6 km/h (0 Bft) SW 225 0 min 0,0 UV-I 18,0 C 20,6 C 0,0 km/h (0 Bft)
15.07.2010 03:00 23,2 C 24,6 C 21,2 C 22,1 C 19,8 C 0,0 C 73 % 81 % 0 % 1008,8 hPa 0,0 l/m 0,5 km/h (0 Bft) SW 225 0 min 0,0 UV-I 18,1 C 19,8 C 0,0 km/h (0 Bft)
15.07.2010 03:06 23,1 C 24,6 C 21,0 C 22,0 C 19,7 C 0,0 C 75 % 83 % 0 % 1008,8 hPa 0,0 l/m 0,2 km/h (0 Bft) N 0 0 min 0,0 UV-I 18,4 C 19,7 C 0,0 km/h (0 Bft)
15.07.2010 03:10 22,7 C 24,5 C 20,4 C 21,5 C 19,2 C 0,0 C 75 % 84 % 0 % 1008,8 hPa 0,0 l/m 0,0 km/h (0 Bft) SW 225 0 min 0,1 UV-I 18,0 C 19,2 C 0,0 km/h (0 Bft)
15.07.2010 03:15 22,6 C 24,5 C 20,3 C 21,5 C 19,2 C 0,0 C 76 % 85 % 0 % 1008,8 hPa 0,0 l/m 0,0 km/h (0 Bft) SW 225 0 min 0,1 UV-I 18,1 C 19,2 C 0,0 km/h (0 Bft)
15.07.2010 03:20 22,5 C 24,5 C 20,2 C 21,4 C 19,1 C 0,0 C 77 % 86 % 0 % 1008,1 hPa 0,0 l/m 0,0 km/h (0 Bft) SW 225 0 min 0,1 UV-I 18,3 C 19,1 C 0,0 km/h (0 Bft)
15.07.2010 03:25 22,4 C 24,4 C 20,3 C 21,3 C 19,2 C 0,0 C 78 % 87 % 0 % 1008,1 hPa 0,0 l/m 0,0 km/h (0 Bft) SW 225 0 min 0,1 UV-I 18,4 C 19,2 C 0,0 km/h (0 Bft)
15.07.2010 03:30 22,3 C 24,4 C 20,1 C 21,3 C 19,2 C 0,0 C 78 % 87 % 0 % 1008,1 hPa 0,0 l/m 0,0 km/h (0 Bft) NO 45 0 min 0,1 UV-I 18,3 C 19,2 C 0,0 km/h (0 Bft)
15.07.2010 03:35 22,1 C 24,4 C 20,0 C 21,1 C 19,2 C 0,0 C 79 % 88 % 0 % 1008,1 hPa 0,0 l/m 0,0 km/h (0 Bft) NO 45 0 min 0,1 UV-I 18,3 C 19,2 C 0,0 km/h (0 Bft)
15.07.2010 03:40 22,3 C 24,4 C 20,0 C 21,2 C 19,1 C 0,0 C 80 % 89 % 0 % 1008,2 hPa 0,0 l/m 0,2 km/h (0 Bft) S-SW 202 0 min 0,1 UV-I 18,7 C 19,1 C 0,0 km/h (0 Bft)
15.07.2010 03:45 22,1 C 24,4 C 20,1 C 21,1 C 19,0 C 0,0 C 79 % 88 % 0 % 1008,2 hPa 0,0 l/m 0,2 km/h (0 Bft) SO 135 0 min 0,1 UV-I 18,3 C 19,0 C 1,9 km/h (1 Bft)
15.07.2010 03:50 22,0 C 24,3 C 19,9 C 21,0 C 19,1 C 0,0 C 79 % 88 % 0 % 1008,2 hPa 0,0 l/m 0,2 km/h (0 Bft) O-NO 67 0 min 0,1 UV-I 18,2 C 19,1 C 0,0 km/h (0 Bft)
15.07.2010 03:55 21,9 C 24,3 C 19,9 C 21,0 C 19,2 C 0,0 C 79 % 89 % 0 % 1008,2 hPa 0,0 l/m 0,2 km/h (0 Bft) O-NO 67 0 min 0,1 UV-I 18,1 C 19,2 C 0,0 km/h (0 Bft)
15.07.2010 04:00 22,1 C 24,4 C 20,0 C 21,1 C 19,2 C 0,0 C 80 % 89 % 0 % 1007,8 hPa 0,0 l/m 0,3 km/h (0 Bft) W-SW 247 0 min 0,1 UV-I 18,5 C 19,2 C 2,1 km/h (1 Bft)
15.07.2010 04:06 22,2 C 24,4 C 20,0 C 21,2 C 19,2 C 0,0 C 80 % 89 % 0 % 1007,8 hPa 0,0 l/m 0,5 km/h (0 Bft) N 0 0 min 0,1 UV-I 18,6 C 19,2 C 0,0 km/h (0 Bft)
15.07.2010 04:10 22,2 C 24,4 C 20,1 C 21,2 C 19,1 C 0,0 C 80 % 90 % 0 % 1007,8 hPa 0,0 l/m 0,3 km/h (0 Bft) W-SW 247 0 min 0,1 UV-I 18,6 C 19,1 C 0,0 km/h (0 Bft)
15.07.2010 04:15 22,1 C 24,3 C 20,0 C 21,1 C 19,1 C 0,0 C 80 % 90 % 0 % 1007,8 hPa 0,0 l/m 0,0 km/h (0 Bft) W-SW 247 0 min 0,1 UV-I 18,5 C 19,1 C 0,0 km/h (0 Bft)
15.07.2010 04:20 21,9 C 24,4 C 19,9 C 21,0 C 19,1 C 0,0 C 81 % 89 % 0 % 1007,6 hPa 0,0 l/m 0,0 km/h (0 Bft) W-SW 247 0 min 0,1 UV-I 18,5 C 19,1 C 0,0 km/h (0 Bft)
15.07.2010 04:25 22,0 C 24,3 C 20,0 C 21,0 C 19,1 C 0,0 C 82 % 90 % 0 % 1007,6 hPa 0,0 l/m 0,8 km/h (0 Bft) SW 225 0 min 0,1 UV-I 18,8 C 19,1 C 3,5 km/h (1 Bft)
15.07.2010 04:30 22,1 C 24,3 C 19,9 C 21,1 C 19,1 C 0,0 C 81 % 90 % 0 % 1007,6 hPa 0,0 l/m 1,1 km/h (1 Bft) W-SW 247 0 min 0,0 UV-I 18,7 C 19,1 C 0,0 km/h (0 Bft)
15.07.2010 04:35 21,9 C 24,4 C 20,0 C 20,9 C 19,0 C 0,0 C 82 % 91 % 0 % 1007,6 hPa 0,0 l/m 0,5 km/h (0 Bft) W-SW 247 0 min 0,0 UV-I 18,7 C 19,0 C 0,0 km/h (0 Bft)
15.07.2010 04:40 21,9 C 24,4 C 20,0 C 20,9 C 19,0 C 0,0 C 82 % 91 % 0 % 1007,9 hPa 0,0 l/m 0,0 km/h (0 Bft) W-SW 247 0 min 0,0 UV-I 18,7 C 19,0 C 0,0 km/h (0 Bft)
15.07.2010 04:45 21,9 C 24,4 C 20,1 C 20,9 C 19,0 C 0,0 C 81 % 91 % 0 % 1007,9 hPa 0,0 l/m 0,0 km/h (0 Bft) W-SW 247 0 min 0,0 UV-I 18,5 C 19,0 C 0,0 km/h (0 Bft)
15.07.2010 04:50 21,9 C 24,3 C 19,9 C 20,9 C 19,0 C 0,0 C 81 % 91 % 0 % 1007,9 hPa 0,0 l/m 0,0 km/h (0 Bft) W-SW 247 0 min 0,0 UV-I 18,5 C 19,0 C 0,0 km/h (0 Bft)
15.07.2010 04:55 21,6 C 24,3 C 19,8 C 20,7 C 19,0 C 0,0 C 82 % 90 % 0 % 1007,9 hPa 0,0 l/m 0,0 km/h (0 Bft) W-SW 247 0 min 0,0 UV-I 18,4 C 19,0 C 0,0 km/h (0 Bft)
15.07.2010 05:00 21,7 C 24,3 C 19,9 C 20,8 C 19,1 C 0,0 C 83 % 91 % 0 % 1007,4 hPa 0,0 l/m 0,2 km/h (0 Bft) S 180 0 min 0,0 UV-I 18,7 C 19,1 C 0,0 km/h (0 Bft)
15.07.2010 05:06 21,8 C 24,3 C 20,0 C 20,9 C 19,1 C 0,0 C 83 % 91 % 0 % 1007,4 hPa 0,0 l/m 0,2 km/h (0 Bft) N 0 0 min 0,0 UV-I 18,8 C 19,1 C 0,0 km/h (0 Bft)
15.07.2010 05:10 21,9 C 24,2 C 19,9 C 21,0 C 19,1 C 0,0 C 82 % 91 % 0 % 1007,4 hPa 0,0 l/m 0,8 km/h (0 Bft) NO 45 0 min 0,0 UV-I 18,7 C 19,1 C 0,0 km/h (0 Bft)
15.07.2010 05:15 21,9 C 24,3 C 19,9 C 21,0 C 19,1 C 0,0 C 82 % 91 % 0 % 1007,4 hPa 0,0 l/m 1,0 km/h (0 Bft) N-NW 337 0 min 0,0 UV-I 18,7 C 19,1 C 0,0 km/h (0 Bft)
15.07.2010 05:20 21,8 C 24,3 C 19,8 C 20,9 C 19,1 C 0,0 C 83 % 91 % 0 % 1007,4 hPa 0,0 l/m 0,5 km/h (0 Bft) SO 135 0 min 0,0 UV-I 18,8 C 19,1 C 0,0 km/h (0 Bft)
15.07.2010 05:25 21,9 C 24,3 C 19,8 C 20,9 C 19,0 C 0,0 C 82 % 91 % 0 % 1007,4 hPa 0,0 l/m 0,3 km/h (0 Bft) S-SW 202 0 min 0,0 UV-I 18,7 C 19,0 C 0,0 km/h (0 Bft)
15.07.2010 05:30 21,9 C 24,2 C 19,9 C 20,9 C 19,0 C 0,0 C 82 % 91 % 0 % 1007,4 hPa 0,0 l/m 0,6 km/h (0 Bft) W-SW 247 0 min 0,0 UV-I 18,7 C 19,0 C 0,0 km/h (0 Bft)
15.07.2010 05:35 21,9 C 24,2 C 19,8 C 20,9 C 18,9 C 0,0 C 82 % 91 % 0 % 1007,4 hPa 0,0 l/m 0,8 km/h (0 Bft) W-SW 247 0 min 0,0 UV-I 18,7 C 18,9 C 1,8 km/h (1 Bft)
15.07.2010 05:40 21,9 C 24,1 C 19,8 C 20,9 C 18,8 C 0,0 C 82 % 91 % 0 % 1007,7 hPa 0,0 l/m 0,5 km/h (0 Bft) S-SW 202 0 min 0,0 UV-I 18,7 C 18,8 C 1,9 km/h (1 Bft)
15.07.2010 05:45 21,7 C 24,1 C 19,8 C 20,8 C 18,9 C 0,0 C 82 % 91 % 0 % 1007,7 hPa 0,0 l/m 1,0 km/h (0 Bft) SW 225 0 min 0,0 UV-I 18,5 C 18,9 C 3,1 km/h (1 Bft)
15.07.2010 05:50 21,7 C 24,1 C 19,8 C 20,8 C 18,9 C 0,0 C 82 % 91 % 0 % 1007,7 hPa 0,0 l/m 1,3 km/h (1 Bft) W 270 0 min 0,0 UV-I 18,5 C 18,9 C 0,0 km/h (0 Bft)
15.07.2010 05:55 21,5 C 24,1 C 19,8 C 20,6 C 18,9 C 0,0 C 82 % 91 % 0 % 1007,7 hPa 0,0 l/m 0,6 km/h (0 Bft) W 270 0 min 0,0 UV-I 18,3 C 18,9 C 0,0 km/h (0 Bft)
15.07.2010 06:00 21,4 C 24,1 C 19,8 C 20,6 C 19,0 C 0,0 C 83 % 91 % 0 % 1008,2 hPa 0,0 l/m 0,0 km/h (0 Bft) W 270 0 min 0,0 UV-I 18,4 C 19,0 C 0,0 km/h (0 Bft)
15.07.2010 06:06 21,3 C 24,1 C 19,8 C 20,5 C 19,0 C 0,0 C 83 % 91 % 0 % 1008,2 hPa 0,0 l/m 0,0 km/h (0 Bft) N 0 0 min 0,0 UV-I 18,3 C 19,0 C 0,0 km/h (0 Bft)
15.07.2010 06:10 21,3 C 24,1 C 19,8 C 20,6 C 19,1 C 0,0 C 83 % 91 % 0 % 1008,2 hPa 0,0 l/m 0,0 km/h (0 Bft) W 270 0 min 0,0 UV-I 18,3 C 19,1 C 0,0 km/h (0 Bft)
15.07.2010 06:15 21,3 C 24,1 C 19,8 C 20,6 C 19,2 C 0,0 C 83 % 91 % 0 % 1008,2 hPa 0,0 l/m 0,0 km/h (0 Bft) W 270 0 min 0,0 UV-I 18,3 C 19,2 C 0,0 km/h (0 Bft)
15.07.2010 06:20 21,2 C 24,1 C 19,8 C 20,6 C 19,3 C 0,0 C 83 % 91 % 0 % 1008,6 hPa 0,0 l/m 0,6 km/h (0 Bft) O-NO 67 0 min 0,0 UV-I 18,2 C 19,3 C 0,0 km/h (0 Bft)
15.07.2010 06:25 21,2 C 24,0 C 19,8 C 20,6 C 19,4 C 0,0 C 84 % 91 % 0 % 1008,6 hPa 0,0 l/m 0,6 km/h (0 Bft) O-NO 67 0 min 0,0 UV-I 18,4 C 19,4 C 0,0 km/h (0 Bft)
15.07.2010 06:30 21,4 C 24,0 C 19,8 C 20,8 C 19,6 C 0,0 C 84 % 91 % 0 % 1008,6 hPa 0,0 l/m 0,6 km/h (0 Bft) SW 225 0 min 0,0 UV-I 18,6 C 19,6 C 3,5 km/h (1 Bft)
15.07.2010 06:35 21,5 C 24,0 C 19,8 C 20,9 C 19,6 C 0,0 C 83 % 91 % 0 % 1008,6 hPa 0,0 l/m 1,0 km/h (0 Bft) SW 225 0 min 0,0 UV-I 18,5 C 19,6 C 0,0 km/h (0 Bft)
15.07.2010 06:40 21,6 C 24,0 C 19,8 C 20,9 C 19,5 C 0,0 C 83 % 91 % 0 % 1009,1 hPa 0,0 l/m 1,1 km/h (1 Bft) O-NO 67 0 min 0,0 UV-I 18,6 C 19,5 C 0,0 km/h (0 Bft)
15.07.2010 06:45 21,6 C 23,9 C 19,8 C 20,9 C 19,5 C 0,0 C 83 % 91 % 0 % 1009,1 hPa 0,0 l/m 1,0 km/h (0 Bft) S 180 0 min 0,1 UV-I 18,6 C 19,5 C 2,3 km/h (1 Bft)
15.07.2010 06:50 21,6 C 23,9 C 19,8 C 21,0 C 19,7 C 0,0 C 83 % 91 % 0 % 1009,1 hPa 0,0 l/m 0,8 km/h (0 Bft) SO 135 0 min 0,0 UV-I 18,6 C 19,7 C 0,0 km/h (0 Bft)
15.07.2010 06:55 21,6 C 23,8 C 19,8 C 21,1 C 20,0 C 0,0 C 83 % 91 % 0 % 1009,1 hPa 0,0 l/m 0,6 km/h (0 Bft) W-SW 247 0 min 0,1 UV-I 18,6 C 20,0 C 2,1 km/h (1 Bft)
15.07.2010 07:00 21,7 C 23,8 C 19,8 C 21,3 C 20,4 C 0,0 C 83 % 91 % 0 % 1009,6 hPa 0,0 l/m 1,8 km/h (1 Bft) S 180 0 min 0,1 UV-I 18,7 C 20,4 C 3,9 km/h (1 Bft)
15.07.2010 07:06 21,9 C 23,8 C 19,8 C 21,4 C 20,5 C 0,0 C 83 % 91 % 0 % 1009,6 hPa 0,0 l/m 3,1 km/h (1 Bft) N 0 0 min 0,0 UV-I 18,9 C 20,5 C 4,8 km/h (1 Bft)
15.07.2010 07:10 21,9 C 23,8 C 19,8 C 21,5 C 20,8 C 0,0 C 83 % 91 % 0 % 1009,6 hPa 0,0 l/m 3,5 km/h (1 Bft) S 180 0 min 0,1 UV-I 18,9 C 20,8 C 4,3 km/h (1 Bft)
15.07.2010 07:15 22,0 C 23,7 C 19,8 C 21,6 C 20,8 C 0,0 C 83 % 91 % 0 % 1009,6 hPa 0,0 l/m 3,5 km/h (1 Bft) S 180 0 min 0,1 UV-I 19,0 C 20,8 C 4,8 km/h (1 Bft)
15.07.2010 07:20 22,0 C 23,7 C 19,8 C 21,7 C 21,1 C 0,0 C 82 % 91 % 0 % 1009,8 hPa 0,0 l/m 2,6 km/h (1 Bft) N-NO 22 0 min 0,1 UV-I 18,8 C 21,1 C 0,0 km/h (0 Bft)
15.07.2010 07:25 22,1 C 23,7 C 19,8 C 21,9 C 21,5 C 0,0 C 82 % 91 % 0 % 1009,8 hPa 0,0 l/m 1,1 km/h (1 Bft) O-SO 112 0 min 0,1 UV-I 18,9 C 21,5 C 0,0 km/h (0 Bft)
15.07.2010 07:30 22,2 C 23,7 C 19,8 C 22,1 C 21,9 C 0,0 C 82 % 91 % 0 % 1009,8 hPa 0,0 l/m 0,2 km/h (0 Bft) O-SO 112 0 min 0,1 UV-I 19,0 C 21,9 C 0,0 km/h (0 Bft)
15.07.2010 07:35 22,3 C 23,7 C 19,8 C 22,3 C 22,3 C 0,0 C 82 % 91 % 0 % 1009,8 hPa 0,0 l/m 0,0 km/h (0 Bft) W-SW 247 0 min 0,2 UV-I 19,1 C 22,3 C 0,0 km/h (0 Bft)
15.07.2010 07:40 22,6 C 23,6 C 19,8 C 23,1 C 23,1 C 0,5 C 81 % 91 % 13 % 1009,8 hPa 0,0 l/m 0,0 km/h (0 Bft) W 270 0 min 0,2 UV-I 19,2 C 23,1 C 0,0 km/h (0 Bft)
15.07.2010 07:45 22,9 C 23,6 C 19,8 C 24,5 C 24,5 C 1,6 C 81 % 91 % 42 % 1009,8 hPa 0,0 l/m 0,6 km/h (0 Bft) S 180 0 min 0,3 UV-I 19,5 C 24,5 C 1,9 km/h (1 Bft)
15.07.2010 07:50 23,1 C 23,6 C 19,8 C 26,0 C 26,0 C 2,9 C 81 % 91 % 76 % 1009,8 hPa 0,0 l/m 1,9 km/h (1 Bft) S 180 0 min 0,3 UV-I 19,7 C 26,0 C 1,8 km/h (1 Bft)
15.07.2010 07:55 23,2 C 23,6 C 19,8 C 26,9 C 26,9 C 3,7 C 81 % 91 % 97 % 1009,8 hPa 0,0 l/m 1,4 km/h (1 Bft) SW 225 5 min 0,3 UV-I 19,8 C 26,9 C 1,6 km/h (1 Bft)
15.07.2010 08:00 23,0 C 23,5 C 19,8 C 25,6 C 25,6 C 2,6 C 80 % 91 % 68 % 1010,1 hPa 0,0 l/m 2,1 km/h (1 Bft) W-SW 247 0 min 0,3 UV-I 19,4 C 25,6 C 3,2 km/h (1 Bft)
15.07.2010 08:06 23,0 C 23,6 C 19,8 C 24,9 C 24,9 C 1,9 C 80 % 91 % 50 % 1010,1 hPa 0,0 l/m 2,9 km/h (1 Bft) N 0 0 min 0,3 UV-I 19,4 C 24,9 C 0,0 km/h (0 Bft)
15.07.2010 08:10 23,0 C 23,5 C 19,8 C 24,2 C 24,2 C 1,2 C 80 % 91 % 32 % 1010,1 hPa 0,0 l/m 1,9 km/h (1 Bft) S 180 0 min 0,3 UV-I 19,4 C 24,2 C 2,1 km/h (1 Bft)
15.07.2010 08:15 23,2 C 23,5 C 19,8 C 24,5 C 24,5 C 1,3 C 80 % 91 % 34 % 1010,1 hPa 0,0 l/m 1,1 km/h (1 Bft) O-NO 67 0 min 0,4 UV-I 19,6 C 24,5 C 1,9 km/h (1 Bft)
15.07.2010 08:20 23,4 C 23,5 C 19,8 C 25,0 C 25,0 C 1,6 C 80 % 91 % 42 % 1010,1 hPa 0,0 l/m 2,1 km/h (1 Bft) O 90 0 min 0,5 UV-I 19,7 C 25,0 C 3,2 km/h (1 Bft)
15.07.2010 08:25 23,5 C 23,5 C 19,8 C 26,2 C 26,2 C 2,7 C 80 % 91 % 71 % 1010,1 hPa 0,0 l/m 3,1 km/h (1 Bft) SW 225 0 min 0,5 UV-I 19,8 C 26,2 C 3,2 km/h (1 Bft)
15.07.2010 08:30 23,7 C 23,5 C 19,8 C 26,9 C 26,9 C 3,2 C 79 % 91 % 84 % 1010,1 hPa 0,0 l/m 3,5 km/h (1 Bft) W-NW 292 0 min 0,5 UV-I 19,8 C 26,9 C 3,4 km/h (1 Bft)
15.07.2010 08:35 23,5 C 23,5 C 19,8 C 25,8 C 25,8 C 2,3 C 79 % 91 % 61 % 1010,1 hPa 0,0 l/m 3,2 km/h (1 Bft) W-SW 247 0 min 0,6 UV-I 19,6 C 25,8 C 3,5 km/h (1 Bft)
15.07.2010 08:40 23,7 C 23,5 C 19,8 C 25,9 C 25,9 C 2,2 C 79 % 91 % 58 % 1010,2 hPa 0,0 l/m 2,7 km/h (1 Bft) W-SW 247 0 min 0,6 UV-I 19,8 C 25,9 C 3,5 km/h (1 Bft)
15.07.2010 08:45 23,7 C 23,4 C 19,8 C 26,1 C 26,1 C 2,4 C 79 % 91 % 63 % 1010,2 hPa 0,0 l/m 3,1 km/h (1 Bft) S 180 0 min 0,7 UV-I 19,8 C 26,1 C 3,4 km/h (1 Bft)
15.07.2010 08:50 23,7 C 23,4 C 19,8 C 25,4 C 25,4 C 1,7 C 78 % 91 % 45 % 1010,2 hPa 0,0 l/m 3,5 km/h (1 Bft) SW 225 0 min 0,5 UV-I 19,6 C 25,4 C 7,4 km/h (2 Bft)
15.07.2010 08:55 23,7 C 23,4 C 19,8 C 25,1 C 25,1 C 1,4 C 78 % 91 % 37 % 1010,2 hPa 0,0 l/m 3,5 km/h (1 Bft) W-SW 247 0 min 0,6 UV-I 19,6 C 25,1 C 7,2 km/h (2 Bft)
15.07.2010 09:00 23,8 C 23,4 C 19,8 C 24,8 C 24,8 C 1,0 C 78 % 91 % 26 % 1010,5 hPa 0,0 l/m 3,7 km/h (1 Bft) O-SO 112 0 min 0,5 UV-I 19,7 C 24,8 C 1,9 km/h (1 Bft)
15.07.2010 09:06 23,7 C 23,4 C 19,8 C 24,6 C 24,6 C 0,9 C 78 % 91 % 24 % 1010,5 hPa 0,0 l/m 3,1 km/h (1 Bft) N 0 0 min 0,7 UV-I 19,6 C 24,6 C 0,0 km/h (0 Bft)
15.07.2010 09:10 23,8 C 23,4 C 19,8 C 24,8 C 24,8 C 1,0 C 78 % 91 % 26 % 1010,5 hPa 0,0 l/m 1,8 km/h (1 Bft) SO 135 0 min 0,8 UV-I 19,7 C 24,8 C 1,8 km/h (1 Bft)
15.07.2010 09:15 23,9 C 23,4 C 19,8 C 24,8 C 24,8 C 0,9 C 78 % 91 % 24 % 1010,5 hPa 0,0 l/m 1,4 km/h (1 Bft) S 180 0 min 0,8 UV-I 19,8 C 24,8 C 1,6 km/h (1 Bft)
15.07.2010 09:20 24,0 C 23,4 C 19,8 C 24,8 C 24,8 C 0,8 C 79 % 91 % 21 % 1010,9 hPa 0,0 l/m 3,4 km/h (1 Bft) W 270 0 min 0,8 UV-I 20,1 C 24,8 C 5,8 km/h (2 Bft)
15.07.2010 09:25 24,0 C 23,4 C 19,8 C 24,7 C 24,7 C 0,7 C 77 % 91 % 18 % 1010,9 hPa 0,0 l/m 4,8 km/h (1 Bft) S-SW 202 0 min 0,7 UV-I 19,7 C 24,7 C 7,1 km/h (2 Bft)
15.07.2010 09:30 23,9 C 23,4 C 19,8 C 24,4 C 24,4 C 0,5 C 76 % 91 % 13 % 1010,9 hPa 0,0 l/m 6,0 km/h (2 Bft) SW 225 0 min 0,5 UV-I 19,4 C 24,4 C 4,3 km/h (1 Bft)
15.07.2010 09:35 23,9 C 23,4 C 19,8 C 24,2 C 24,2 C 0,3 C 75 % 91 % 8 % 1010,9 hPa 0,0 l/m 5,5 km/h (1 Bft) W-SW 247 0 min 0,5 UV-I 19,2 C 24,2 C 6,1 km/h (2 Bft)
15.07.2010 09:40 24,0 C 23,4 C 19,8 C 24,2 C 24,2 C 0,2 C 74 % 91 % 5 % 1011,1 hPa 0,0 l/m 6,8 km/h (2 Bft) W-SW 247 0 min 0,8 UV-I 19,1 C 24,2 C 17,5 km/h (3 Bft)
15.07.2010 09:45 24,0 C 23,4 C 22,9 C 24,3 C 24,3 C 0,3 C 74 % 78 % 8 % 1011,1 hPa 0,0 l/m 8,4 km/h (2 Bft) S 180 0 min 0,9 UV-I 19,1 C 24,3 C 7,6 km/h (2 Bft)
15.07.2010 09:50 24,0 C 23,4 C 22,9 C 24,3 C 24,3 C 0,3 C 74 % 78 % 8 % 1011,1 hPa 0,0 l/m 7,7 km/h (2 Bft) S 180 0 min 0,8 UV-I 19,1 C 24,3 C 6,8 km/h (2 Bft)
15.07.2010 09:55 23,9 C 23,3 C 23,1 C 24,2 C 24,2 C 0,3 C 73 % 77 % 8 % 1011,1 hPa 0,0 l/m 7,4 km/h (2 Bft) S 180 0 min 0,6 UV-I 18,8 C 24,2 C 9,3 km/h (2 Bft)
15.07.2010 10:00 23,8 C 23,3 C 23,1 C 23,9 C 23,9 C 0,1 C 73 % 77 % 3 % 1011,5 hPa 0,0 l/m 7,6 km/h (2 Bft) W-SW 247 0 min 0,5 UV-I 18,7 C 23,9 C 10,0 km/h (2 Bft)
15.07.2010 10:06 23,9 C 23,3 C 23,1 C 23,9 C 23,8 C 0,0 C 74 % 77 % 0 % 1011,5 hPa 0,0 l/m 6,9 km/h (2 Bft) N 0 0 min 0,6 UV-I 19,0 C 23,8 C 6,1 km/h (2 Bft)
15.07.2010 10:10 24,1 C 23,3 C 23,1 C 24,0 C 23,9 C 0,0 C 74 % 77 % 0 % 1011,5 hPa 0,0 l/m 6,3 km/h (2 Bft) SW 225 0 min 0,8 UV-I 19,2 C 23,9 C 7,9 km/h (2 Bft)
15.07.2010 10:15 24,1 C 23,3 C 23,1 C 24,2 C 24,2 C 0,1 C 73 % 77 % 3 % 1011,5 hPa 0,0 l/m 5,5 km/h (1 Bft) S 180 0 min 1,1 UV-I 18,9 C 24,2 C 8,7 km/h (2 Bft)
15.07.2010 10:20 24,3 C 23,2 C 23,1 C 24,7 C 24,7 C 0,4 C 73 % 77 % 11 % 1011,3 hPa 0,0 l/m 5,1 km/h (1 Bft) SW 225 0 min 1,2 UV-I 19,1 C 24,7 C 6,6 km/h (2 Bft)
15.07.2010 10:25 24,2 C 23,2 C 23,1 C 24,9 C 24,9 C 0,7 C 73 % 77 % 18 % 1011,3 hPa 0,0 l/m 4,7 km/h (1 Bft) SW 225 0 min 1,2 UV-I 19,0 C 24,9 C 4,5 km/h (1 Bft)
15.07.2010 10:30 24,3 C 23,2 C 23,1 C 24,9 C 24,9 C 0,6 C 73 % 77 % 16 % 1011,3 hPa 0,0 l/m 6,0 km/h (2 Bft) SW 225 0 min 1,1 UV-I 19,1 C 24,9 C 7,9 km/h (2 Bft)
15.07.2010 10:35 24,3 C 23,2 C 23,1 C 24,8 C 24,8 C 0,5 C 73 % 77 % 13 % 1011,3 hPa 0,0 l/m 6,6 km/h (2 Bft) W-NW 292 0 min 0,9 UV-I 19,1 C 24,8 C 8,9 km/h (2 Bft)
15.07.2010 10:40 24,1 C 23,2 C 23,1 C 24,6 C 24,6 C 0,5 C 71 % 77 % 13 % 1012,0 hPa 0,0 l/m 5,5 km/h (1 Bft) W-SW 247 0 min 0,7 UV-I 18,5 C 24,6 C 13,7 km/h (3 Bft)
15.07.2010 10:45 24,0 C 23,2 C 23,1 C 24,1 C 24,1 C 0,1 C 70 % 77 % 3 % 1012,0 hPa 0,0 l/m 6,3 km/h (2 Bft) S-SW 202 0 min 0,3 UV-I 18,2 C 24,1 C 13,0 km/h (3 Bft)
15.07.2010 10:50 23,8 C 23,4 C 23,1 C 23,7 C 23,4 C 0,0 C 69 % 77 % 0 % 1012,0 hPa 0,0 l/m 8,0 km/h (2 Bft) S-SW 202 0 min 0,2 UV-I 17,8 C 23,4 C 7,7 km/h (2 Bft)
15.07.2010 10:55 23,6 C 23,4 C 23,1 C 23,1 C 22,1 C 0,0 C 71 % 77 % 0 % 1012,0 hPa 0,0 l/m 7,6 km/h (2 Bft) SW 225 0 min 0,4 UV-I 18,0 C 22,1 C 15,9 km/h (3 Bft)
15.07.2010 11:00 23,3 C 23,3 C 23,1 C 22,5 C 20,8 C 0,0 C 72 % 77 % 0 % 1012,4 hPa 0,0 l/m 6,8 km/h (2 Bft) SW 225 0 min 0,5 UV-I 18,0 C 20,8 C 10,6 km/h (2 Bft)
15.07.2010 11:06 23,1 C 23,3 C 23,1 C 22,2 C 20,5 C 0,0 C 73 % 77 % 0 % 1012,4 hPa 0,0 l/m 6,1 km/h (2 Bft) N 0 0 min 0,5 UV-I 18,0 C 20,5 C 8,0 km/h (2 Bft)
15.07.2010 11:10 23,0 C 23,3 C 23,1 C 22,1 C 20,3 C 0,0 C 74 % 77 % 0 % 1012,4 hPa 0,0 l/m 5,1 km/h (1 Bft) S-SO 157 0 min 0,4 UV-I 18,1 C 20,3 C 4,2 km/h (1 Bft)
15.07.2010 11:15 22,9 C 23,4 C 23,1 C 22,0 C 20,1 C 0,0 C 75 % 77 % 0 % 1012,4 hPa 0,0 l/m 4,7 km/h (1 Bft) S 180 0 min 0,3 UV-I 18,2 C 20,1 C 6,3 km/h (2 Bft)
15.07.2010 11:20 22,9 C 23,4 C 23,1 C 21,9 C 19,8 C 0,0 C 76 % 77 % 0 % 1012,5 hPa 0,0 l/m 4,7 km/h (1 Bft) SW 225 0 min 0,3 UV-I 18,4 C 19,8 C 3,7 km/h (1 Bft)
15.07.2010 11:25 22,8 C 23,4 C 23,1 C 21,8 C 19,9 C 0,0 C 77 % 77 % 0 % 1012,5 hPa 0,0 l/m 4,5 km/h (1 Bft) SW 225 0 min 0,5 UV-I 18,5 C 19,9 C 6,9 km/h (2 Bft)
15.07.2010 11:30 22,9 C 23,4 C 23,1 C 22,1 C 20,4 C 0,0 C 76 % 77 % 0 % 1012,5 hPa 0,0 l/m 2,3 km/h (1 Bft) SO 135 0 min 0,9 UV-I 18,4 C 20,4 C 0,0 km/h (0 Bft)
15.07.2010 11:35 22,9 C 23,3 C 23,1 C 22,3 C 21,2 C 0,0 C 77 % 77 % 0 % 1012,5 hPa 0,0 l/m 1,3 km/h (1 Bft) W-SW 247 0 min 1,2 UV-I 18,6 C 21,2 C 3,4 km/h (1 Bft)
15.07.2010 11:40 23,1 C 23,3 C 23,1 C 22,8 C 22,1 C 0,0 C 77 % 77 % 0 % 1012,4 hPa 0,7 l/m 1,8 km/h (1 Bft) S-SO 157 0 min 1,3 UV-I 18,8 C 22,1 C 1,6 km/h (1 Bft)
15.07.2010 11:45 23,1 C 23,3 C 23,1 C 22,8 C 22,2 C 0,0 C 77 % 77 % 0 % 1012,4 hPa 0,0 l/m 2,6 km/h (1 Bft) S-SO 157 0 min 0,7 UV-I 18,8 C 22,2 C 3,1 km/h (1 Bft)
15.07.2010 11:50 23,1 C 23,3 C 21,2 C 22,9 C 22,4 C 0,0 C 75 % 85 % 0 % 1012,4 hPa 0,0 l/m 2,4 km/h (1 Bft) O-SO 112 0 min 1,1 UV-I 18,4 C 22,4 C 2,1 km/h (1 Bft)
15.07.2010 11:55 23,0 C 23,3 C 21,2 C 22,8 C 22,5 C 0,0 C 76 % 84 % 0 % 1012,4 hPa 0,0 l/m 2,6 km/h (1 Bft) NO 45 0 min 1,0 UV-I 18,5 C 22,5 C 6,1 km/h (2 Bft)
15.07.2010 12:00 23,1 C 23,3 C 21,2 C 22,9 C 22,4 C 0,0 C 76 % 84 % 0 % 1012,8 hPa 0,0 l/m 3,7 km/h (1 Bft) W-SW 247 0 min 1,0 UV-I 18,6 C 22,4 C 4,8 km/h (1 Bft)
15.07.2010 12:06 23,0 C 23,3 C 21,2 C 22,8 C 22,4 C 0,0 C 75 % 84 % 0 % 1012,8 hPa 0,0 l/m 3,9 km/h (1 Bft) N 0 0 min 1,0 UV-I 18,3 C 22,4 C 6,8 km/h (2 Bft)
15.07.2010 12:10 23,1 C 23,2 C 21,2 C 22,9 C 22,6 C 0,0 C 75 % 84 % 0 % 1012,8 hPa 0,0 l/m 2,6 km/h (1 Bft) SW 225 0 min 0,7 UV-I 18,4 C 22,6 C 2,1 km/h (1 Bft)
15.07.2010 12:15 23,1 C 23,3 C 21,2 C 23,0 C 22,7 C 0,0 C 75 % 84 % 0 % 1012,8 hPa 0,0 l/m 1,6 km/h (1 Bft) SO 135 0 min 1,1 UV-I 18,4 C 22,7 C 0,0 km/h (0 Bft)
15.07.2010 12:20 23,3 C 23,2 C 21,2 C 23,2 C 23,0 C 0,0 C 75 % 84 % 0 % 1012,7 hPa 0,0 l/m 1,0 km/h (0 Bft) W-SW 247 0 min 1,2 UV-I 18,6 C 23,0 C 2,7 km/h (1 Bft)
15.07.2010 12:25 23,2 C 23,2 C 21,2 C 23,2 C 23,2 C 0,0 C 75 % 84 % 0 % 1012,7 hPa 0,0 l/m 1,1 km/h (1 Bft) W-SW 247 0 min 1,4 UV-I 18,5 C 23,2 C 2,1 km/h (1 Bft)
15.07.2010 12:30 23,5 C 23,2 C 21,2 C 23,9 C 23,9 C 0,4 C 75 % 84 % 11 % 1012,7 hPa 0,0 l/m 2,1 km/h (1 Bft) S 180 0 min 1,9 UV-I 18,8 C 23,9 C 3,9 km/h (1 Bft)
15.07.2010 12:35 23,7 C 23,2 C 21,2 C 24,4 C 24,4 C 0,7 C 75 % 84 % 18 % 1012,7 hPa 0,0 l/m 2,6 km/h (1 Bft) SO 135 0 min 2,1 UV-I 19,0 C 24,4 C 3,4 km/h (1 Bft)
15.07.2010 12:40 23,7 C 23,2 C 21,2 C 24,8 C 24,8 C 1,1 C 72 % 84 % 29 % 1012,2 hPa 0,0 l/m 2,4 km/h (1 Bft) N-NW 337 0 min 2,0 UV-I 18,3 C 24,8 C 0,0 km/h (0 Bft)
15.07.2010 12:45 24,0 C 23,1 C 21,2 C 25,5 C 25,5 C 1,5 C 72 % 84 % 39 % 1012,2 hPa 0,0 l/m 1,9 km/h (1 Bft) S-SW 202 0 min 3,1 UV-I 18,6 C 25,5 C 0,0 km/h (0 Bft)
15.07.2010 12:50 24,2 C 23,2 C 21,2 C 27,1 C 27,1 C 2,9 C 71 % 84 % 76 % 1012,2 hPa 0,0 l/m 1,8 km/h (1 Bft) SW 225 0 min 3,4 UV-I 18,6 C 27,1 C 0,0 km/h (0 Bft)
15.07.2010 12:55 24,3 C 23,2 C 21,2 C 27,4 C 27,4 C 3,1 C 70 % 84 % 82 % 1012,2 hPa 0,0 l/m 1,6 km/h (1 Bft) W-SW 247 0 min 2,6 UV-I 18,5 C 27,4 C 3,9 km/h (1 Bft)
15.07.2010 13:00 24,8 C 23,2 C 21,2 C 28,3 C 28,3 C 3,5 C 69 % 84 % 92 % 1012,4 hPa 0,0 l/m 2,6 km/h (1 Bft) NW 315 5 min 3,9 UV-I 18,7 C 28,3 C 11,4 km/h (2 Bft)
15.07.2010 13:06 24,8 C 23,2 C 21,2 C 28,5 C 28,5 C 3,7 C 69 % 84 % 97 % 1012,4 hPa 0,0 l/m 4,0 km/h (1 Bft) N 0 6 min 3,8 UV-I 18,7 C 28,5 C 4,8 km/h (1 Bft)
15.07.2010 13:10 24,9 C 23,2 C 21,2 C 28,4 C 28,4 C 3,5 C 68 % 84 % 92 % 1012,4 hPa 0,0 l/m 4,3 km/h (1 Bft) O-SO 112 4 min 3,9 UV-I 18,6 C 28,4 C 3,5 km/h (1 Bft)
15.07.2010 13:15 25,0 C 23,2 C 21,2 C 28,1 C 28,1 C 3,1 C 68 % 84 % 82 % 1012,4 hPa 0,0 l/m 3,9 km/h (1 Bft) W-SW 247 0 min 3,0 UV-I 18,7 C 28,1 C 6,0 km/h (2 Bft)
15.07.2010 13:20 25,1 C 23,2 C 21,2 C 28,1 C 28,1 C 3,0 C 69 % 84 % 79 % 1012,3 hPa 0,0 l/m 3,4 km/h (1 Bft) W-SW 247 0 min 3,2 UV-I 19,0 C 28,1 C 4,7 km/h (1 Bft)
15.07.2010 13:25 25,2 C 23,2 C 21,2 C 28,2 C 28,2 C 3,0 C 68 % 84 % 79 % 1012,3 hPa 0,0 l/m 3,2 km/h (1 Bft) W-SW 247 0 min 3,2 UV-I 18,9 C 28,2 C 4,8 km/h (1 Bft)
15.07.2010 13:30 25,2 C 23,2 C 21,2 C 28,3 C 28,3 C 3,1 C 67 % 84 % 82 % 1012,3 hPa 0,0 l/m 2,3 km/h (1 Bft) SO 135 0 min 2,7 UV-I 18,6 C 28,3 C 3,5 km/h (1 Bft)
15.07.2010 13:35 25,3 C 23,2 C 21,2 C 28,3 C 28,3 C 3,0 C 68 % 84 % 79 % 1012,3 hPa 0,0 l/m 3,2 km/h (1 Bft) SW 225 0 min 2,8 UV-I 19,0 C 28,3 C 9,7 km/h (2 Bft)
15.07.2010 13:40 25,7 C 23,1 C 21,2 C 29,2 C 29,2 C 3,5 C 65 % 84 % 92 % 1012,2 hPa 0,0 l/m 4,7 km/h (1 Bft) SW 225 5 min 4,8 UV-I 18,6 C 29,2 C 9,5 km/h (2 Bft)
15.07.2010 13:45 25,7 C 23,1 C 21,2 C 28,9 C 28,9 C 3,2 C 64 % 84 % 84 % 1012,2 hPa 0,0 l/m 6,1 km/h (2 Bft) W-SW 247 0 min 3,6 UV-I 18,4 C 28,9 C 9,3 km/h (2 Bft)
15.07.2010 13:50 26,0 C 23,1 C 21,2 C 29,5 C 29,5 C 3,5 C 62 % 84 % 92 % 1012,2 hPa 0,0 l/m 5,0 km/h (1 Bft) NW 315 5 min 4,4 UV-I 18,1 C 29,5 C 2,7 km/h (1 Bft)
15.07.2010 13:55 26,2 C 23,1 C 21,2 C 30,0 C 30,0 C 3,8 C 61 % 84 % 100 % 1012,2 hPa 0,0 l/m 3,7 km/h (1 Bft) SO 135 5 min 4,4 UV-I 18,1 C 30,0 C 4,3 km/h (1 Bft)
15.07.2010 14:00 26,4 C 23,2 C 25,7 C 30,1 C 30,1 C 3,7 C 59 % 63 % 97 % 1012,2 hPa 0,0 l/m 4,8 km/h (1 Bft) W-SW 247 5 min 4,4 UV-I 17,7 C 30,1 C 6,8 km/h (2 Bft)
15.07.2010 14:06 26,3 C 23,1 C 25,7 C 29,4 C 29,4 C 3,1 C 59 % 62 % 82 % 1012,2 hPa 0,0 l/m 5,5 km/h (1 Bft) N 0 0 min 3,3 UV-I 17,6 C 29,4 C 6,1 km/h (2 Bft)
15.07.2010 14:10 26,2 C 23,1 C 25,9 C 28,8 C 28,8 C 2,6 C 59 % 63 % 68 % 1012,2 hPa 0,0 l/m 5,8 km/h (2 Bft) N-NO 22 0 min 3,6 UV-I 17,5 C 28,8 C 6,4 km/h (2 Bft)
15.07.2010 14:15 26,5 C 23,1 C 26,0 C 28,9 C 28,9 C 2,4 C 58 % 61 % 63 % 1012,2 hPa 0,0 l/m 7,1 km/h (2 Bft) S-SO 157 0 min 4,1 UV-I 17,5 C 28,9 C 5,8 km/h (2 Bft)
15.07.2010 14:20 26,6 C 23,2 C 26,2 C 29,0 C 29,0 C 2,4 C 59 % 62 % 63 % 1012,2 hPa 0,0 l/m 7,1 km/h (2 Bft) W 270 0 min 4,1 UV-I 17,9 C 29,0 C 7,1 km/h (2 Bft)
15.07.2010 14:25 26,9 C 23,2 C 26,5 C 29,3 C 29,3 C 2,4 C 57 % 58 % 63 % 1012,2 hPa 0,0 l/m 6,9 km/h (2 Bft) SO 135 0 min 4,0 UV-I 17,6 C 29,3 C 11,1 km/h (2 Bft)
15.07.2010 14:30 27,1 C 23,2 C 27,1 C 29,2 C 29,2 C 2,1 C 57 % 59 % 55 % 1012,2 hPa 0,0 l/m 7,2 km/h (2 Bft) W-SW 247 0 min 4,1 UV-I 17,8 C 29,2 C 10,1 km/h (2 Bft)
15.07.2010 14:35 26,7 C 23,2 C 27,1 C 28,9 C 28,9 C 2,2 C 56 % 57 % 58 % 1012,2 hPa 0,0 l/m 7,9 km/h (2 Bft) S-SW 202 0 min 3,4 UV-I 17,2 C 28,9 C 8,7 km/h (2 Bft)
15.07.2010 14:40 26,4 C 23,1 C 26,1 C 27,9 C 27,9 C 1,5 C 56 % 59 % 39 % 1012,5 hPa 0,0 l/m 6,3 km/h (2 Bft) SW 225 0 min 2,2 UV-I 16,9 C 27,9 C 10,5 km/h (2 Bft)
15.07.2010 14:45 26,3 C 23,1 C 25,9 C 27,4 C 27,4 C 1,1 C 57 % 59 % 29 % 1012,5 hPa 0,0 l/m 5,8 km/h (2 Bft) W-SW 247 0 min 2,3 UV-I 17,1 C 27,4 C 8,9 km/h (2 Bft)
15.07.2010 14:50 26,1 C 23,1 C 25,7 C 26,7 C 26,7 C 0,6 C 57 % 59 % 16 % 1012,5 hPa 0,0 l/m 7,9 km/h (2 Bft) W 270 0 min 1,8 UV-I 16,9 C 26,7 C 12,4 km/h (3 Bft)
15.07.2010 14:55 26,0 C 23,1 C 25,5 C 26,3 C 26,3 C 0,3 C 57 % 59 % 8 % 1012,5 hPa 0,0 l/m 8,0 km/h (2 Bft) S 180 0 min 1,2 UV-I 16,8 C 26,3 C 6,9 km/h (2 Bft)
15.07.2010 15:00 25,8 C 23,1 C 25,2 C 25,9 C 25,9 C 0,1 C 58 % 61 % 3 % 1012,6 hPa 0,0 l/m 6,6 km/h (2 Bft) W-SW 247 0 min 0,9 UV-I 16,9 C 25,9 C 5,1 km/h (1 Bft)
15.07.2010 15:06 25,9 C 23,2 C 25,1 C 25,8 C 25,7 C 0,0 C 58 % 61 % 0 % 1012,6 hPa 0,0 l/m 5,6 km/h (1 Bft) N 0 0 min 0,9 UV-I 17,0 C 25,7 C 6,4 km/h (2 Bft)
15.07.2010 15:10 25,8 C 23,2 C 24,8 C 25,8 C 25,8 C 0,0 C 58 % 61 % 0 % 1012,6 hPa 0,0 l/m 5,0 km/h (1 Bft) SW 225 0 min 1,1 UV-I 16,9 C 25,8 C 8,2 km/h (2 Bft)
15.07.2010 15:15 25,8 C 23,2 C 24,9 C 26,0 C 26,0 C 0,2 C 59 % 62 % 5 % 1012,6 hPa 0,0 l/m 5,3 km/h (1 Bft) SW 225 0 min 1,5 UV-I 17,2 C 26,0 C 10,9 km/h (2 Bft)
15.07.2010 15:20 25,9 C 23,2 C 24,9 C 26,3 C 26,3 C 0,4 C 59 % 62 % 11 % 1012,5 hPa 0,0 l/m 5,8 km/h (2 Bft) SW 225 0 min 1,7 UV-I 17,3 C 26,3 C 6,9 km/h (2 Bft)
15.07.2010 15:25 25,9 C 23,2 C 25,0 C 26,4 C 26,4 C 0,5 C 59 % 63 % 13 % 1012,5 hPa 0,0 l/m 5,0 km/h (1 Bft) W-SW 247 0 min 1,7 UV-I 17,3 C 26,4 C 2,4 km/h (1 Bft)
15.07.2010 15:30 25,9 C 23,3 C 24,9 C 26,6 C 26,6 C 0,7 C 59 % 63 % 18 % 1012,5 hPa 0,0 l/m 4,0 km/h (1 Bft) SW 225 0 min 1,4 UV-I 17,3 C 26,6 C 2,1 km/h (1 Bft)
15.07.2010 15:35 25,9 C 23,3 C 24,9 C 26,7 C 26,7 C 0,8 C 59 % 64 % 21 % 1012,5 hPa 0,0 l/m 3,1 km/h (1 Bft) S-SO 157 0 min 1,3 UV-I 17,3 C 26,7 C 2,7 km/h (1 Bft)
15.07.2010 15:39 25,9 C 23,3 C 24,9 C 27,0 C 27,0 C 1,1 C 59 % 64 % 29 % 1012,6 hPa 0,0 l/m 2,3 km/h (1 Bft) O 90 0 min 1,5 UV-I 17,3 C 27,0 C 0,0 km/h (0 Bft)
15.07.2010 15:44 26,0 C 23,3 C 25,0 C 27,6 C 27,6 C 1,6 C 59 % 64 % 42 % 1012,6 hPa 0,0 l/m 2,3 km/h (1 Bft) S 180 0 min 1,9 UV-I 17,4 C 27,6 C 2,3 km/h (1 Bft)
15.07.2010 15:49 26,1 C 23,3 C 25,5 C 28,2 C 28,2 C 2,1 C 60 % 64 % 55 % 1012,6 hPa 0,0 l/m 2,1 km/h (1 Bft) W-SW 247 0 min 2,2 UV-I 17,7 C 28,2 C 3,4 km/h (1 Bft)
15.07.2010 15:54 26,3 C 23,3 C 25,5 C 28,5 C 28,5 C 2,2 C 59 % 64 % 58 % 1012,6 hPa 0,0 l/m 1,8 km/h (1 Bft) W-SW 247 0 min 1,9 UV-I 17,6 C 28,5 C 0,0 km/h (0 Bft)
15.07.2010 15:59 26,1 C 23,3 C 25,1 C 28,3 C 28,3 C 2,2 C 59 % 65 % 58 % 1012,8 hPa 0,0 l/m 1,0 km/h (0 Bft) O-NO 67 0 min 1,1 UV-I 17,4 C 28,3 C 2,1 km/h (1 Bft)
15.07.2010 16:04 25,9 C 23,3 C 24,9 C 27,8 C 27,8 C 1,9 C 60 % 63 % 50 % 1012,8 hPa 0,0 l/m 1,1 km/h (1 Bft) SO 135 0 min 0,8 UV-I 17,5 C 27,8 C 4,0 km/h (1 Bft)
15.07.2010 16:05 25,9 C 23,3 C 24,9 C 27,8 C 27,8 C 1,9 C 60 % 63 % 50 % 1012,8 hPa 0,0 l/m 1,1 km/h (1 Bft) SO 135 0 min 0,8 UV-I 17,5 C 27,8 C 4,0 km/h (1 Bft)
15.07.2010 16:10 25,9 C 23,3 C 24,8 C 27,4 C 27,4 C 1,5 C 60 % 65 % 39 % 1012,8 hPa 0,0 l/m 1,3 km/h (1 Bft) N-NW 337 0 min 0,9 UV-I 17,5 C 27,4 C 0,0 km/h (0 Bft)
15.07.2010 16:15 25,9 C 23,3 C 24,8 C 27,3 C 27,3 C 1,4 C 61 % 65 % 37 % 1012,8 hPa 0,0 l/m 0,8 km/h (0 Bft) W-SW 247 0 min 0,8 UV-I 17,8 C 27,3 C 0,0 km/h (0 Bft)
15.07.2010 16:20 25,7 C 23,4 C 24,7 C 27,1 C 27,1 C 1,4 C 61 % 66 % 37 % 1013,0 hPa 0,0 l/m 0,2 km/h (0 Bft) S-SO 157 0 min 0,6 UV-I 17,6 C 27,1 C 2,7 km/h (1 Bft)
15.07.2010 16:25 25,7 C 23,5 C 24,6 C 27,1 C 27,1 C 1,4 C 61 % 66 % 37 % 1013,0 hPa 0,0 l/m 0,2 km/h (0 Bft) O-NO 67 0 min 0,6 UV-I 17,6 C 27,1 C 0,0 km/h (0 Bft)
15.07.2010 16:30 25,9 C 23,5 C 24,7 C 27,2 C 27,2 C 1,3 C 62 % 68 % 34 % 1013,0 hPa 0,0 l/m 0,2 km/h (0 Bft) S-SW 202 0 min 0,9 UV-I 18,0 C 27,2 C 6,0 km/h (2 Bft)
15.07.2010 16:35 25,9 C 23,5 C 24,9 C 27,6 C 27,6 C 1,7 C 62 % 67 % 45 % 1013,0 hPa 0,0 l/m 0,2 km/h (0 Bft) SO 135 0 min 1,2 UV-I 18,0 C 27,6 C 0,0 km/h (0 Bft)
15.07.2010 16:40 26,4 C 23,4 C 25,4 C 28,9 C 28,9 C 2,5 C 61 % 66 % 66 % 1012,8 hPa 0,0 l/m 0,2 km/h (0 Bft) S 180 0 min 1,6 UV-I 18,3 C 28,9 C 0,0 km/h (0 Bft)
15.07.2010 16:45 26,5 C 23,4 C 25,5 C 29,8 C 29,8 C 3,3 C 60 % 64 % 87 % 1012,8 hPa 0,0 l/m 0,5 km/h (0 Bft) S 180 5 min 1,7 UV-I 18,1 C 29,8 C 5,5 km/h (1 Bft)
15.07.2010 16:50 26,5 C 23,4 C 25,7 C 29,7 C 29,7 C 3,2 C 60 % 64 % 84 % 1012,8 hPa 0,0 l/m 2,4 km/h (1 Bft) W 270 0 min 1,6 UV-I 18,1 C 29,7 C 0,0 km/h (0 Bft)
15.07.2010 16:55 26,6 C 23,4 C 25,9 C 29,9 C 29,9 C 3,3 C 60 % 64 % 87 % 1012,8 hPa 0,0 l/m 2,9 km/h (1 Bft) SO 135 5 min 1,7 UV-I 18,2 C 29,9 C 4,8 km/h (1 Bft)
15.07.2010 17:00 26,7 C 23,4 C 25,9 C 30,0 C 30,0 C 3,3 C 60 % 64 % 87 % 1013,0 hPa 0,0 l/m 1,4 km/h (1 Bft) N-NO 22 5 min 1,6 UV-I 18,3 C 30,0 C 0,0 km/h (0 Bft)
15.07.2010 17:07 26,8 C 23,4 C 26,0 C 30,1 C 30,1 C 3,3 C 61 % 66 % 87 % 1013,0 hPa 0,0 l/m 1,3 km/h (1 Bft) N 0 7 min 1,4 UV-I 18,6 C 30,1 C 0,0 km/h (0 Bft)
15.07.2010 17:10 27,2 C 23,4 C 26,2 C 30,9 C 30,9 C 3,7 C 59 % 63 % 97 % 1013,0 hPa 0,0 l/m 0,8 km/h (0 Bft) O-NO 67 3 min 1,7 UV-I 18,5 C 30,9 C 2,1 km/h (1 Bft)
15.07.2010 17:15 27,1 C 23,4 C 26,4 C 31,4 C 31,4 C 4,3 C 58 % 61 % 100 % 1013,0 hPa 0,0 l/m 0,6 km/h (0 Bft) N 360 5 min 1,5 UV-I 18,1 C 31,4 C 0,0 km/h (0 Bft)
15.07.2010 17:20 27,1 C 23,4 C 26,2 C 31,3 C 31,3 C 4,2 C 59 % 63 % 100 % 1012,9 hPa 0,0 l/m 0,6 km/h (0 Bft) O-SO 112 5 min 1,3 UV-I 18,4 C 31,3 C 3,1 km/h (1 Bft)
15.07.2010 17:25 27,1 C 23,4 C 26,3 C 31,1 C 31,1 C 4,0 C 58 % 62 % 100 % 1012,9 hPa 0,0 l/m 0,6 km/h (0 Bft) O-SO 112 5 min 1,2 UV-I 18,1 C 31,1 C 0,0 km/h (0 Bft)
15.07.2010 17:30 27,2 C 23,4 C 26,3 C 30,6 C 30,6 C 3,4 C 58 % 63 % 89 % 1012,9 hPa 0,0 l/m 0,5 km/h (0 Bft) N-NO 22 5 min 1,1 UV-I 18,2 C 30,6 C 0,0 km/h (0 Bft)
15.07.2010 17:35 27,2 C 23,4 C 26,2 C 30,6 C 30,6 C 3,4 C 59 % 63 % 89 % 1012,9 hPa 0,0 l/m 0,8 km/h (0 Bft) W-SW 247 5 min 1,1 UV-I 18,5 C 30,6 C 2,4 km/h (1 Bft)
15.07.2010 17:40 26,8 C 23,4 C 26,0 C 29,8 C 29,8 C 3,0 C 59 % 63 % 79 % 1013,1 hPa 0,0 l/m 0,5 km/h (0 Bft) W-SW 247 0 min 0,8 UV-I 18,1 C 29,8 C 0,0 km/h (0 Bft)
15.07.2010 17:45 26,8 C 23,4 C 25,9 C 29,4 C 29,4 C 2,6 C 59 % 64 % 68 % 1013,1 hPa 0,0 l/m 0,3 km/h (0 Bft) O-NO 67 0 min 0,7 UV-I 18,1 C 29,4 C 0,0 km/h (0 Bft)
15.07.2010 17:50 26,9 C 23,5 C 25,9 C 29,2 C 29,2 C 2,3 C 59 % 64 % 61 % 1013,1 hPa 0,0 l/m 0,2 km/h (0 Bft) NW 315 0 min 0,7 UV-I 18,2 C 29,2 C 0,0 km/h (0 Bft)
15.07.2010 17:55 27,0 C 23,5 C 25,9 C 29,3 C 29,3 C 2,3 C 59 % 64 % 61 % 1013,1 hPa 0,0 l/m 0,0 km/h (0 Bft) O-SO 112 0 min 0,7 UV-I 18,3 C 29,3 C 0,0 km/h (0 Bft)
15.07.2010 18:00 27,0 C 23,5 C 25,9 C 29,6 C 29,6 C 2,6 C 59 % 64 % 68 % 1013,1 hPa 0,0 l/m 0,2 km/h (0 Bft) O 90 0 min 0,7 UV-I 18,3 C 29,6 C 0,0 km/h (0 Bft)
15.07.2010 18:07 26,8 C 23,5 C 25,9 C 29,4 C 29,4 C 2,6 C 59 % 63 % 68 % 1013,1 hPa 0,0 l/m 0,2 km/h (0 Bft) N 0 0 min 0,6 UV-I 18,1 C 29,4 C 1,9 km/h (1 Bft)
15.07.2010 18:10 26,7 C 23,5 C 25,8 C 28,8 C 28,8 C 2,1 C 60 % 65 % 55 % 1013,1 hPa 0,0 l/m 1,1 km/h (1 Bft) SO 135 0 min 0,4 UV-I 18,3 C 28,8 C 4,2 km/h (1 Bft)
15.07.2010 18:15 26,7 C 23,5 C 25,6 C 28,2 C 28,2 C 1,5 C 60 % 64 % 39 % 1013,1 hPa 0,0 l/m 1,4 km/h (1 Bft) O 90 0 min 0,4 UV-I 18,3 C 28,2 C 2,4 km/h (1 Bft)
15.07.2010 18:20 26,5 C 23,5 C 25,3 C 27,4 C 27,4 C 0,9 C 59 % 63 % 24 % 1013,1 hPa 0,0 l/m 1,3 km/h (1 Bft) SO 135 0 min 0,2 UV-I 17,8 C 27,4 C 0,0 km/h (0 Bft)
15.07.2010 18:25 26,4 C 23,5 C 25,3 C 27,2 C 27,2 C 0,8 C 59 % 63 % 21 % 1013,1 hPa 0,0 l/m 0,8 km/h (0 Bft) S 180 0 min 0,3 UV-I 17,7 C 27,2 C 0,0 km/h (0 Bft)
15.07.2010 18:30 26,5 C 23,6 C 25,2 C 27,0 C 27,0 C 0,5 C 58 % 63 % 13 % 1013,1 hPa 0,0 l/m 0,0 km/h (0 Bft) O-NO 67 0 min 0,2 UV-I 17,5 C 27,0 C 0,0 km/h (0 Bft)
15.07.2010 18:35 26,3 C 23,6 C 25,1 C 26,8 C 26,8 C 0,5 C 60 % 63 % 13 % 1013,1 hPa 0,0 l/m 0,2 km/h (0 Bft) O-NO 67 0 min 0,2 UV-I 17,9 C 26,8 C 0,0 km/h (0 Bft)
15.07.2010 18:40 26,3 C 23,6 C 25,1 C 26,6 C 26,6 C 0,3 C 60 % 64 % 8 % 1013,1 hPa 0,0 l/m 0,2 km/h (0 Bft) O-NO 67 0 min 0,2 UV-I 17,9 C 26,6 C 0,0 km/h (0 Bft)
15.07.2010 18:45 26,3 C 23,6 C 25,0 C 26,6 C 26,6 C 0,3 C 60 % 65 % 8 % 1013,1 hPa 0,0 l/m 0,0 km/h (0 Bft) O-NO 67 0 min 0,2 UV-I 17,9 C 26,6 C 0,0 km/h (0 Bft)
15.07.2010 18:50 26,3 C 23,6 C 25,1 C 26,9 C 26,9 C 0,6 C 59 % 64 % 16 % 1013,1 hPa 0,0 l/m 0,0 km/h (0 Bft) O-NO 67 0 min 0,2 UV-I 17,6 C 26,9 C 0,0 km/h (0 Bft)
15.07.2010 18:55 26,2 C 23,6 C 25,0 C 26,9 C 26,9 C 0,7 C 59 % 65 % 18 % 1013,1 hPa 0,0 l/m 0,0 km/h (0 Bft) O-NO 67 0 min 0,2 UV-I 17,5 C 26,9 C 0,0 km/h (0 Bft)
15.07.2010 19:00 26,3 C 23,6 C 24,9 C 26,6 C 26,6 C 0,3 C 61 % 66 % 8 % 1013,1 hPa 0,0 l/m 0,0 km/h (0 Bft) O-NO 67 0 min 0,2 UV-I 18,2 C 26,6 C 0,0 km/h (0 Bft)
15.07.2010 19:07 26,3 C 23,6 C 24,8 C 26,6 C 26,6 C 0,3 C 61 % 66 % 8 % 1013,1 hPa 0,0 l/m 0,0 km/h (0 Bft) N 0 0 min 0,1 UV-I 18,2 C 26,6 C 0,0 km/h (0 Bft)
15.07.2010 19:10 26,2 C 23,6 C 24,8 C 26,4 C 26,4 C 0,2 C 62 % 67 % 5 % 1013,1 hPa 0,0 l/m 0,0 km/h (0 Bft) S 180 0 min 0,1 UV-I 18,3 C 26,4 C 0,0 km/h (0 Bft)
15.07.2010 19:15 26,1 C 23,6 C 24,7 C 26,3 C 26,3 C 0,2 C 62 % 67 % 5 % 1013,1 hPa 0,0 l/m 0,0 km/h (0 Bft) S 180 0 min 0,1 UV-I 18,2 C 26,3 C 0,0 km/h (0 Bft)
15.07.2010 19:20 26,3 C 23,6 C 24,7 C 26,5 C 26,5 C 0,2 C 61 % 67 % 5 % 1013,1 hPa 0,0 l/m 0,0 km/h (0 Bft) W-SW 247 0 min 0,0 UV-I 18,2 C 26,5 C 0,0 km/h (0 Bft)
15.07.2010 19:25 26,3 C 23,6 C 24,8 C 26,7 C 26,7 C 0,4 C 62 % 67 % 11 % 1013,1 hPa 0,0 l/m 0,2 km/h (0 Bft) S 180 0 min 0,0 UV-I 18,4 C 26,7 C 1,8 km/h (1 Bft)
15.07.2010 19:30 26,2 C 23,6 C 24,8 C 26,8 C 26,8 C 0,6 C 61 % 67 % 16 % 1013,1 hPa 0,0 l/m 0,6 km/h (0 Bft) SW 225 0 min 0,0 UV-I 18,1 C 26,8 C 0,0 km/h (0 Bft)
15.07.2010 19:35 26,1 C 23,6 C 24,8 C 26,6 C 26,6 C 0,5 C 60 % 66 % 13 % 1013,1 hPa 0,0 l/m 0,5 km/h (0 Bft) S 180 0 min 0,0 UV-I 17,7 C 26,6 C 1,9 km/h (1 Bft)
15.07.2010 19:40 26,1 C 23,6 C 24,8 C 26,4 C 26,4 C 0,3 C 61 % 67 % 8 % 1013,2 hPa 0,0 l/m 0,0 km/h (0 Bft) O-NO 67 0 min 0,0 UV-I 18,0 C 26,4 C 0,0 km/h (0 Bft)
15.07.2010 19:45 26,0 C 23,6 C 24,7 C 26,3 C 26,3 C 0,3 C 62 % 67 % 8 % 1013,2 hPa 0,0 l/m 0,2 km/h (0 Bft) W 270 0 min 0,0 UV-I 18,1 C 26,3 C 0,0 km/h (0 Bft)
15.07.2010 19:50 25,8 C 23,6 C 24,5 C 25,9 C 25,9 C 0,1 C 62 % 67 % 3 % 1013,2 hPa 0,0 l/m 0,0 km/h (0 Bft) NO 45 0 min 0,0 UV-I 18,0 C 25,9 C 0,0 km/h (0 Bft)
15.07.2010 19:55 25,8 C 23,6 C 24,5 C 25,7 C 25,6 C 0,0 C 63 % 68 % 0 % 1013,2 hPa 0,0 l/m 0,0 km/h (0 Bft) SO 135 0 min 0,0 UV-I 18,2 C 25,6 C 0,0 km/h (0 Bft)
15.07.2010 20:00 25,9 C 23,6 C 24,4 C 25,7 C 25,4 C 0,0 C 63 % 69 % 0 % 1013,4 hPa 0,0 l/m 0,3 km/h (0 Bft) SO 135 0 min 0,0 UV-I 18,3 C 25,4 C 0,0 km/h (0 Bft)
15.07.2010 20:08 25,8 C 23,6 C 24,3 C 25,7 C 25,4 C 0,0 C 64 % 69 % 0 % 1013,4 hPa 0,0 l/m 0,3 km/h (0 Bft) N 360 0 min 0,0 UV-I 18,5 C 25,4 C 0,0 km/h (0 Bft)
15.07.2010 20:10 25,7 C 23,6 C 24,3 C 25,5 C 25,2 C 0,0 C 64 % 69 % 0 % 1013,4 hPa 0,0 l/m 0,2 km/h (0 Bft) S-SW 202 0 min 0,0 UV-I 18,4 C 25,2 C 0,0 km/h (0 Bft)
15.07.2010 20:15 25,6 C 23,6 C 24,1 C 25,4 C 25,0 C 0,0 C 63 % 69 % 0 % 1013,4 hPa 0,0 l/m 0,3 km/h (0 Bft) O-SO 112 0 min 0,0 UV-I 18,0 C 25,0 C 0,0 km/h (0 Bft)
15.07.2010 20:20 25,6 C 23,6 C 24,1 C 25,3 C 24,8 C 0,0 C 64 % 70 % 0 % 1013,4 hPa 0,0 l/m 0,3 km/h (0 Bft) S-SO 157 0 min 0,0 UV-I 18,3 C 24,8 C 0,0 km/h (0 Bft)
15.07.2010 20:25 25,6 C 23,6 C 24,0 C 25,3 C 24,6 C 0,0 C 65 % 70 % 0 % 1013,4 hPa 0,0 l/m 0,2 km/h (0 Bft) W-SW 247 0 min 0,0 UV-I 18,5 C 24,6 C 0,0 km/h (0 Bft)
15.07.2010 20:30 25,5 C 23,6 C 23,9 C 25,2 C 24,6 C 0,0 C 65 % 70 % 0 % 1013,4 hPa 0,0 l/m 0,2 km/h (0 Bft) O-NO 67 0 min 0,0 UV-I 18,4 C 24,6 C 0,0 km/h (0 Bft)
15.07.2010 20:35 25,5 C 23,6 C 23,8 C 25,1 C 24,4 C 0,0 C 66 % 71 % 0 % 1013,4 hPa 0,0 l/m 0,2 km/h (0 Bft) W 270 0 min 0,0 UV-I 18,7 C 24,4 C 0,0 km/h (0 Bft)
15.07.2010 20:40 25,4 C 23,6 C 23,9 C 25,0 C 24,3 C 0,0 C 65 % 71 % 0 % 1013,6 hPa 0,0 l/m 0,2 km/h (0 Bft) W-NW 292 0 min 0,0 UV-I 18,3 C 24,3 C 0,0 km/h (0 Bft)
15.07.2010 20:45 25,4 C 23,6 C 23,9 C 25,0 C 24,3 C 0,0 C 64 % 71 % 0 % 1013,6 hPa 0,0 l/m 0,2 km/h (0 Bft) W 270 0 min 0,0 UV-I 18,1 C 24,3 C 0,0 km/h (0 Bft)
15.07.2010 20:50 25,3 C 23,6 C 23,7 C 24,9 C 24,2 C 0,0 C 65 % 71 % 0 % 1013,6 hPa 0,0 l/m 0,0 km/h (0 Bft) W 270 0 min 0,0 UV-I 18,2 C 24,2 C 0,0 km/h (0 Bft)
15.07.2010 20:55 25,3 C 23,6 C 23,7 C 24,9 C 24,0 C 0,0 C 66 % 72 % 0 % 1013,6 hPa 0,0 l/m 0,0 km/h (0 Bft) W 270 0 min 0,0 UV-I 18,5 C 24,0 C 0,0 km/h (0 Bft)
15.07.2010 21:00 25,0 C 23,6 C 23,5 C 24,6 C 23,7 C 0,0 C 66 % 71 % 0 % 1013,6 hPa 0,0 l/m 0,0 km/h (0 Bft) W 270 0 min 0,0 UV-I 18,2 C 23,7 C 0,0 km/h (0 Bft)
15.07.2010 21:07 25,1 C 23,6 C 23,5 C 24,5 C 23,4 C 0,0 C 67 % 72 % 0 % 1013,6 hPa 0,0 l/m 0,0 km/h (0 Bft) N 0 0 min 0,0 UV-I 18,5 C 23,4 C 0,0 km/h (0 Bft)
15.07.2010 21:10 24,9 C 23,6 C 23,3 C 24,3 C 23,1 C 0,0 C 67 % 73 % 0 % 1013,6 hPa 0,0 l/m 0,0 km/h (0 Bft) NW 315 0 min 0,0 UV-I 18,3 C 23,1 C 0,0 km/h (0 Bft)
15.07.2010 21:15 24,9 C 23,7 C 23,1 C 24,2 C 22,9 C 0,0 C 68 % 73 % 0 % 1013,6 hPa 0,0 l/m 0,0 km/h (0 Bft) NW 315 0 min 0,0 UV-I 18,6 C 22,9 C 0,0 km/h (0 Bft)
15.07.2010 21:20 24,7 C 23,7 C 23,0 C 24,0 C 22,7 C 0,0 C 69 % 75 % 0 % 1013,8 hPa 0,0 l/m 0,0 km/h (0 Bft) NW 315 0 min 0,0 UV-I 18,6 C 22,7 C 0,0 km/h (0 Bft)
15.07.2010 21:25 24,7 C 23,7 C 23,1 C 24,0 C 22,5 C 0,0 C 69 % 76 % 0 % 1013,8 hPa 0,0 l/m 0,0 km/h (0 Bft) NW 315 0 min 0,0 UV-I 18,6 C 22,5 C 0,0 km/h (0 Bft)
15.07.2010 21:30 24,7 C 23,7 C 23,0 C 24,0 C 22,5 C 0,0 C 71 % 77 % 0 % 1013,8 hPa 0,0 l/m 0,0 km/h (0 Bft) NW 315 0 min 0,0 UV-I 19,1 C 22,5 C 0,0 km/h (0 Bft)
15.07.2010 21:35 24,6 C 23,7 C 22,9 C 23,9 C 22,4 C 0,0 C 71 % 77 % 0 % 1013,8 hPa 0,0 l/m 0,0 km/h (0 Bft) NW 315 0 min 0,0 UV-I 19,0 C 22,4 C 0,0 km/h (0 Bft)
15.07.2010 21:40 24,5 C 23,7 C 22,9 C 23,8 C 22,3 C 0,0 C 71 % 77 % 0 % 1013,9 hPa 0,0 l/m 0,0 km/h (0 Bft) NW 315 0 min 0,0 UV-I 18,9 C 22,3 C 0,0 km/h (0 Bft)
15.07.2010 21:45 24,4 C 23,7 C 22,7 C 23,7 C 22,2 C 0,0 C 71 % 77 % 0 % 1013,9 hPa 0,0 l/m 0,0 km/h (0 Bft) NW 315 0 min 0,0 UV-I 18,8 C 22,2 C 0,0 km/h (0 Bft)
15.07.2010 21:50 24,3 C 23,6 C 22,7 C 23,6 C 22,1 C 0,0 C 72 % 78 % 0 % 1013,9 hPa 0,0 l/m 0,0 km/h (0 Bft) NW 315 0 min 0,0 UV-I 18,9 C 22,1 C 0,0 km/h (0 Bft)
15.07.2010 21:55 24,3 C 23,6 C 22,6 C 23,5 C 22,0 C 0,0 C 72 % 78 % 0 % 1013,9 hPa 0,0 l/m 0,0 km/h (0 Bft) NW 315 0 min 0,0 UV-I 18,9 C 22,0 C 0,0 km/h (0 Bft)
15.07.2010 22:00 24,0 C 23,6 C 22,5 C 23,3 C 22,0 C 0,0 C 72 % 78 % 0 % 1013,9 hPa 0,0 l/m 0,0 km/h (0 Bft) NW 315 0 min 0,0 UV-I 18,6 C 22,0 C 0,0 km/h (0 Bft)
15.07.2010 22:07 23,9 C 23,6 C 22,5 C 23,3 C 22,0 C 0,0 C 72 % 78 % 0 % 1013,9 hPa 0,0 l/m 0,0 km/h (0 Bft) N 0 0 min 0,0 UV-I 18,5 C 22,0 C 0,0 km/h (0 Bft)
15.07.2010 22:10 23,9 C 23,6 C 22,4 C 23,3 C 22,0 C 0,0 C 73 % 79 % 0 % 1013,9 hPa 0,0 l/m 0,0 km/h (0 Bft) NW 315 0 min 0,0 UV-I 18,8 C 22,0 C 0,0 km/h (0 Bft)
15.07.2010 22:15 23,9 C 23,6 C 22,4 C 23,3 C 22,0 C 0,0 C 73 % 79 % 0 % 1013,9 hPa 0,0 l/m 0,0 km/h (0 Bft) NW 315 0 min 0,0 UV-I 18,8 C 22,0 C 0,0 km/h (0 Bft)
15.07.2010 22:20 23,8 C 23,6 C 22,5 C 23,2 C 22,0 C 0,0 C 74 % 80 % 0 % 1014,0 hPa 0,0 l/m 0,6 km/h (0 Bft) S-SW 202 0 min 0,0 UV-I 18,9 C 22,0 C 3,1 km/h (1 Bft)
15.07.2010 22:26 23,8 C 23,6 C 22,2 C 23,1 C 21,8 C 0,0 C 73 % 80 % 0 % 1014,0 hPa 0,0 l/m 0,8 km/h (0 Bft) SO 135 0 min 0,0 UV-I 18,7 C 21,8 C 0,0 km/h (0 Bft)
15.07.2010 22:30 23,7 C 23,6 C 22,2 C 23,0 C 21,6 C 0,0 C 74 % 80 % 0 % 1014,0 hPa 0,0 l/m 0,5 km/h (0 Bft) W-SW 247 0 min 0,0 UV-I 18,8 C 21,6 C 0,0 km/h (0 Bft)
15.07.2010 22:35 23,6 C 23,6 C 22,1 C 22,9 C 21,5 C 0,0 C 74 % 80 % 0 % 1014,0 hPa 0,0 l/m 0,0 km/h (0 Bft) W-SW 247 0 min 0,0 UV-I 18,7 C 21,5 C 0,0 km/h (0 Bft)
15.07.2010 22:40 23,4 C 23,6 C 21,9 C 22,7 C 21,3 C 0,0 C 74 % 80 % 0 % 1014,1 hPa 0,0 l/m 0,0 km/h (0 Bft) W-SW 247 0 min 0,0 UV-I 18,5 C 21,3 C 0,0 km/h (0 Bft)
15.07.2010 22:45 23,4 C 23,6 C 21,9 C 22,7 C 21,2 C 0,0 C 75 % 81 % 0 % 1014,1 hPa 0,0 l/m 0,0 km/h (0 Bft) W-SW 247 0 min 0,0 UV-I 18,7 C 21,2 C 0,0 km/h (0 Bft)
15.07.2010 22:50 23,3 C 23,6 C 21,8 C 22,6 C 21,1 C 0,0 C 74 % 80 % 0 % 1014,1 hPa 0,0 l/m 0,0 km/h (0 Bft) W-SW 247 0 min 0,0 UV-I 18,4 C 21,1 C 0,0 km/h (0 Bft)
15.07.2010 22:55 23,3 C 23,6 C 21,7 C 22,6 C 21,1 C 0,0 C 73 % 80 % 0 % 1014,1 hPa 0,0 l/m 0,0 km/h (0 Bft) W-SW 247 0 min 0,0 UV-I 18,2 C 21,1 C 0,0 km/h (0 Bft)
15.07.2010 23:00 23,2 C 23,6 C 21,7 C 22,5 C 21,1 C 0,0 C 74 % 80 % 0 % 1014,2 hPa 0,0 l/m 0,0 km/h (0 Bft) W-SW 247 0 min 0,0 UV-I 18,3 C 21,1 C 0,0 km/h (0 Bft)
15.07.2010 23:06 23,2 C 23,6 C 21,7 C 22,5 C 21,1 C 0,0 C 75 % 81 % 0 % 1014,2 hPa 0,0 l/m 0,0 km/h (0 Bft) N 0 0 min 0,0 UV-I 18,5 C 21,1 C 0,0 km/h (0 Bft)
15.07.2010 23:10 23,1 C 23,6 C 21,6 C 22,4 C 20,9 C 0,0 C 74 % 80 % 0 % 1014,2 hPa 0,0 l/m 0,0 km/h (0 Bft) W-SW 247 0 min 0,0 UV-I 18,2 C 20,9 C 0,0 km/h (0 Bft)
15.07.2010 23:15 23,1 C 23,6 C 21,7 C 22,3 C 20,8 C 0,0 C 75 % 80 % 0 % 1014,2 hPa 0,0 l/m 0,0 km/h (0 Bft) W-SW 247 0 min 0,0 UV-I 18,4 C 20,8 C 0,0 km/h (0 Bft)
15.07.2010 23:20 22,9 C 23,6 C 21,7 C 22,2 C 20,8 C 0,0 C 75 % 80 % 0 % 1014,2 hPa 0,0 l/m 0,0 km/h (0 Bft) W-SW 247 0 min 0,0 UV-I 18,2 C 20,8 C 0,0 km/h (0 Bft)
15.07.2010 23:25 23,1 C 23,6 C 21,7 C 22,3 C 20,7 C 0,0 C 76 % 80 % 0 % 1014,2 hPa 0,0 l/m 0,0 km/h (0 Bft) W-SW 247 0 min 0,0 UV-I 18,6 C 20,7 C 0,0 km/h (0 Bft)
15.07.2010 23:30 23,1 C 23,6 C 21,7 C 22,2 C 20,5 C 0,0 C 77 % 80 % 0 % 1014,2 hPa 0,0 l/m 0,0 km/h (0 Bft) W-SW 247 0 min 0,0 UV-I 18,8 C 20,5 C 0,0 km/h (0 Bft)
15.07.2010 23:35 23,0 C 23,6 C 21,7 C 22,1 C 20,3 C 0,0 C 78 % 80 % 0 % 1014,2 hPa 0,0 l/m 0,2 km/h (0 Bft) W-SW 247 0 min 0,0 UV-I 18,9 C 20,3 C 0,0 km/h (0 Bft)
15.07.2010 23:40 22,9 C 23,6 C 21,7 C 21,9 C 20,0 C 0,0 C 78 % 80 % 0 % 1014,7 hPa 0,0 l/m 0,6 km/h (0 Bft) W-SW 247 0 min 0,0 UV-I 18,9 C 20,0 C 0,0 km/h (0 Bft)
15.07.2010 23:45 22,8 C 23,6 C 21,7 C 21,8 C 19,8 C 0,0 C 78 % 80 % 0 % 1014,7 hPa 0,0 l/m 0,5 km/h (0 Bft) W-SW 247 0 min 0,0 UV-I 18,8 C 19,8 C 0,0 km/h (0 Bft)
15.07.2010 23:50 22,6 C 23,7 C 21,7 C 21,6 C 19,5 C 0,0 C 77 % 80 % 0 % 1014,7 hPa 0,0 l/m 0,0 km/h (0 Bft) NO 45 0 min 0,0 UV-I 18,4 C 19,5 C 0,0 km/h (0 Bft)
15.07.2010 23:55 22,4 C 23,7 C 21,7 C 21,4 C 19,4 C 0,0 C 78 % 80 % 0 % 1014,7 hPa 0,0 l/m 0,0 km/h (0 Bft) N-NW 337 0 min 0,0 UV-I 18,4 C 19,4 C 0,0 km/h (0 Bft)
_ Min-Zeit 06:20 12:45 04:55 06:06 05:40 00:00 14:35 14:35 00:00 00:00 - 00:00 - - - 01:45 01:30 05:40 00:00
Minimum _ 21,2 C 23,1 C 19,8 C 20,5 C 18,8 C 0,0 C 56 % 57 % 0 % 1005,4 hPa - 0,0 km/h (0 Bft) - - - 0,0 UV-I 16,8 C 18,8 C 0,0 km/h (0 Bft)
_ Max-Zeit 17:10 00:00 14:30 17:15 17:15 17:15 06:25 04:35 17:15 23:40 11:40 00:50 - - 17:07 00:50 09:20 17:15 00:40
Maximum _ 27,2 C 24,6 C 27,1 C 31,4 C 31,4 C 4,3 C 84 % 91 % 100 % 1014,7 hPa 0,7 l/m 10,6 km/h
SW (2 Bft)
- - 7 min 5,1 UV-I 20,1 C 31,4 C 27,8 km/h
SW (4 Bft)
Durchschnitt _ 24,2 C 23,7 C 22,5 C 24,6 C 23,8 C 0,7 C 70 % 77 % 19 % 1011,1 hPa #0,7 l/m 2,1 km/h (1 Bft) W-SW - #1:30 h 1,1 UV-I 18,3 C 23,8 C 2,7 km/h (1 Bft)
2010 www.wetterstation-wechselburg.de